Weather History for Somerville, NJ

Change the Weather History Date:

Saturday, January 14, 2012

  Actual Average Record
Temperature  
Mean Temperature 28 °F -  
Max Temperature 32 °F 36 °F 73 °F (1932)
Min Temperature 24 °F 17 °F -12 °F (1981)
Degree Days  
Heating Degree Days 37    
Moisture  
Dew Point 15 °F    
Average Humidity 57    
Maximum Humidity 78    
Minimum Humidity 44    
Precipitation  
Precipitation 0.00 in - - ()
Sea Level Pressure  
Sea Level Pressure 29.98 in    
Wind  
Wind Speed 7 mph (WNW)    
Max Wind Speed 10 mph    
Max Gust Speed 26 mph    
Visibility 10 miles    
Events Snow    
Averages and records for this station are not official NWS values.
T = Trace of Precipitation, MM = Missing Value Source: NWS Daily Summary

Daily Weather History Graph

Daily Weather History Graph

Search for Another Location

Airport:

Trip Planner

Search our weather history database for the weather conditions in past years. The results will help you decide how hot, cold, wet, or windy it might be!

Date:

Astronomy

Jan. 14, 2012 Rise Set
Actual Time 7:20 AM EST 4:54 PM EST
Civil Twilight 6:50 AM EST 5:24 PM EST
Nautical Twilight 6:17 AM EST 5:58 PM EST
Astronomical Twilight 5:44 AM EST 6:31 PM EST
Moon 11:14 PM EST (1/14) 10:02 AM EST (1/14)
Length of Visible Light 10h 33m
Length of Day
9h 33m
Waning Gibbous, 69% of the Moon is Illuminated
Jan 14
Waning Gibbous
Jan 16
Last Quarter
Jan 23
New
Jan 30
First Quarter
Feb 7
Full

Hourly Weather History & Observations

Time (EST) Temp. Windchill Dew Point Humidity Pressure Visibility Wind Dir Wind Speed Gust Speed Precip Events Conditions
12:53 AM 28.0 °F 21.7 °F 12.9 °F 53% 29.86 in 10.0 mi Variable 5.8 mph - N/A   Clear
1:53 AM 28.0 °F 19.3 °F 12.9 °F 53% 29.88 in 10.0 mi West 9.2 mph - N/A   Partly Cloudy
2:53 AM 28.0 °F 22.8 °F 12.9 °F 53% 29.88 in 10.0 mi West 4.6 mph - N/A   Mostly Cloudy
3:53 AM 28.0 °F 20.8 °F 12.9 °F 53% 29.88 in 10.0 mi Variable 6.9 mph - N/A   Mostly Cloudy
4:53 AM 28.0 °F 20.0 °F 12.9 °F 53% 29.89 in 10.0 mi West 8.1 mph - N/A   Clear
5:53 AM 28.0 °F 20.0 °F 12.9 °F 53% 29.90 in 10.0 mi West 8.1 mph 19.6 mph N/A   Partly Cloudy
6:53 AM 28.0 °F 20.0 °F 12.9 °F 53% 29.92 in 10.0 mi West 8.1 mph - N/A   Overcast
7:53 AM 28.0 °F 20.0 °F 12.9 °F 53% 29.94 in 10.0 mi West 8.1 mph 19.6 mph N/A   Mostly Cloudy
8:53 AM 28.0 °F 21.7 °F 14.0 °F 56% 29.97 in 10.0 mi Variable 5.8 mph 26.5 mph N/A   Overcast
9:53 AM 30.0 °F 21.7 °F 15.1 °F 54% 29.97 in 10.0 mi WNW 9.2 mph - N/A   Mostly Cloudy
10:53 AM 30.0 °F 21.1 °F 15.1 °F 54% 29.98 in 10.0 mi WNW 10.4 mph 19.6 mph N/A   Overcast
11:53 AM 30.9 °F 24.3 °F 14.0 °F 50% 29.96 in 10.0 mi WNW 6.9 mph 17.3 mph N/A   Overcast
12:53 PM 30.9 °F 22.8 °F 14.0 °F 50% 29.96 in 10.0 mi WNW 9.2 mph 20.7 mph N/A   Overcast
1:53 PM 32.0 °F 23.6 °F 12.9 °F 45% 29.96 in 10.0 mi West 10.4 mph 17.3 mph N/A   Overcast
2:53 PM 32.0 °F 23.6 °F 12.0 °F 44% 29.96 in 10.0 mi WNW 10.4 mph 20.7 mph N/A   Overcast
3:53 PM 32.0 °F 25.6 °F 12.0 °F 44% 29.98 in 10.0 mi WNW 6.9 mph - N/A   Scattered Clouds
4:53 PM 30.2 °F 25.4 °F 12.2 °F 47% 29.99 in 10.0 mi Variable 4.6 mph - N/A   Mostly Cloudy
5:53 PM 30.0 °F 25.2 °F 12.0 °F 47% 30.02 in 10.0 mi West 4.6 mph - N/A   Clear
6:53 PM 30.0 °F - 12.9 °F 49% 30.04 in 10.0 mi Calm Calm - N/A   Mostly Cloudy
7:53 PM 30.0 °F 24.1 °F 14.0 °F 51% 30.06 in 10.0 mi NW 5.8 mph - N/A   Overcast
8:22 PM 28.4 °F 21.2 °F 21.2 °F 74% 30.05 in 2.5 mi North 6.9 mph - 0.00 in Snow Light Snow
8:30 PM 28.4 °F 22.2 °F 21.2 °F 74% 30.05 in 7.0 mi North 5.8 mph - 0.00 in Snow Light Snow
8:53 PM 28.0 °F - 19.9 °F 72% 30.07 in 10.0 mi Calm Calm - 0.00 in   Overcast
9:53 PM 25.0 °F - 19.0 °F 78% 30.07 in 10.0 mi Calm Calm - N/A   Scattered Clouds
10:53 PM 24.1 °F - 18.0 °F 77% 30.08 in 10.0 mi Calm Calm - N/A   Scattered Clouds
11:48 PM 26.6 °F 19.1 °F 19.4 °F 74% 30.08 in 10.0 mi NNW 6.9 mph - N/A   Overcast
11:53 PM 26.1 °F 18.4 °F 19.0 °F 75% 30.09 in 10.0 mi NNW 6.9 mph - N/A   Overcast